Simultaneous Nadir Overpasses (SNOs) Predictions

Prediction of SNOs over PacNW region [( 10.00, 139.50) to ( 22.70, 165.60)] between AQUA and NPP Satellites:

Table of predicted SNOs over PacNW region for the next 30.0 days since TLE Epoch: 3/15/2019
Index Date (AQUA) Time (AQUA) AQUA Lat,Lon Date (NPP) Time (NPP) NPP Lat,Lon Distance(km) Time Diff (sec)
1 03/19/2019 15:59:44 22.59, 147.47 03/19/2019 16:01:35 23.21, 144.57 305.42 111
2 03/27/2019 15:10:21 22.61, 159.82 03/27/2019 15:10:45 23.18, 157.27 268.87 24
3 04/04/2019 15:59:50 22.63, 147.45 04/04/2019 16:01:23 23.23, 144.62 297.79 93




NCC Satellite Simultaneous Nadir Overpasses (SNOs) Prediction Service
